Simultaneous Nadir Overpasses (SNOs) Predictions

Prediction of SNOs between METOP-A and TERRA Satellite Orbit:

Table of predicted SNOs for the next 14.0 days since TLE Epoch: 3/14/2020
Index Date (METOP-A) Time (METOP-A) Lat,Lon (METOP-A) SZA (METOP-A ) Date (TERRA) Time (TERRA) Lat,Lon (TERRA) SZA (TERRA ) Distance(km) Time Diff (sec)
1 03/14/2020 16:46:26 81.43, -21.79 86.34 03/14/2020 16:46:49 81.43, -21.74 86.36 0.98 23
2 03/14/2020 17:37:06 -81.42, 145.72 93.66 03/14/2020 17:36:16 -81.43, 145.82 93.67 1.72 50
3 03/17/2020 12:20:49 81.43, 44.55 85.25 03/17/2020 12:21:03 81.43, 44.75 85.28 3.36 14
4 03/17/2020 13:11:29 -81.42,-147.92 94.75 03/17/2020 13:10:31 -81.41,-148.05 94.80 2.57 58
5 03/20/2020 07:55:12 81.43, 110.88 84.16 03/20/2020 07:55:18 81.42, 110.82 84.14 1.78 6
6 03/20/2020 08:45:52 -81.42, -81.56 95.84 03/20/2020 08:44:45 -81.41, -81.56 95.88 1.03 67
7 03/23/2020 02:38:53 -81.43, 9.89 96.92 03/23/2020 02:40:04 -81.43, 10.00 96.88 1.80 71
8 03/23/2020 03:29:33 81.42, 177.59 83.11 03/23/2020 03:29:30 81.43, 177.64 83.12 1.58 3
9 03/25/2020 22:13:15 -81.42, 76.63 97.97 03/25/2020 22:14:18 -81.43, 76.44 97.95 3.41 63




NCC Satellite Simultaneous Nadir Overpasses (SNOs) Prediction Service
